Date String (YYYY-MM-DD hh:mm:ss) UTC,Instrument flags,absolute air pressure of the measurement (hPa),sample flow rate (lpm),inlet stack bypass flow (lpm),air temperature of the measurement (°C),ambient temperature measured by the external sensor (°C),aerosol sample conditioner tube jacket temperature (°C),OPC LED temperature (°C),internal box temperature (°C),relative humidity of the measurement (%),span deviation,mass concentration of particles derived from Lorenz-Mie calculation of OPC scattering (μg/m³),mass concentration of particles derived from Lorenz-Mie calculation of OPC scattering (μg/m³),mass concentration of particles derived from Lorenz-Mie calculation of OPC scattering (μg/m³)
DateTimeUTC,F1_M11,P_M11,Q1_M11,Q2_M11,T1_M11,T2_M11,T3_M11,T4_M11,T5_M11,U1_M11,ZSPAN_M11,X2_M11,X0_M11,X1_M11
2024-04-15 18:00:00,SystemResetWarning,0815.8,5.00,000.00,025.1,024.4,000.0,033.2,027.0,011.7,0000.0,0004.33,0016.86,0002.93
2024-04-15 18:01:00,SystemResetWarning,0815.9,5.01,000.00,025.2,024.6,000.0,033.3,027.1,011.7,0000.0,0004.25,0016.52,0002.91
2024-04-15 18:02:00,SystemResetWarning,0815.8,4.99,000.00,025.2,024.7,000.0,033.3,027.2,011.9,0000.0,0004.19,0016.05,0002.93
2024-04-15 18:03:00,SystemResetWarning,0815.8,5.00,000.00,025.3,024.9,000.0,033.4,027.3,011.7,0000.0,0004.23,0015.14,0002.94
2024-04-15 18:04:00,SystemResetWarning,0815.7,5.00,000.00,025.3,024.4,000.0,033.4,026.9,011.5,0000.0,0004.18,0015.16,0002.95
2024-04-15 18:05:00,SystemResetWarning,0815.6,5.00,000.00,025.0,022.5,000.0,033.5,025.9,011.6,0000.0,0004.15,0014.72,0002.95
2024-04-15 18:06:00,SystemResetWarning,0815.6,5.01,000.00,024.7,022.0,000.0,033.5,025.5,012.2,0000.0,0004.11,0014.23,0002.96
2024-04-15 18:07:00,SystemResetWarning,0815.6,5.01,000.00,024.6,022.4,000.0,033.4,025.7,012.4,0000.0,0004.08,0013.61,0002.95
2024-04-15 18:08:00,SystemResetWarning,0815.6,5.00,000.00,024.6,022.7,000.0,033.2,026.0,011.6,0000.0,0004.13,0013.16,0002.95
2024-04-15 18:09:00,SystemResetWarning,0815.6,4.99,000.00,024.7,023.1,000.0,033.2,026.3,012.0,0000.0,0004.11,0012.85,0002.96
2024-04-15 18:10:00,SystemResetWarning,0815.6,5.00,000.00,024.8,023.4,000.0,033.2,026.5,012.4,0000.0,0004.13,0011.72,0003.00
2024-04-15 18:11:00,SystemResetWarning,0815.5,5.00,000.00,024.8,023.7,000.0,033.2,026.6,012.0,0000.0,0004.15,0011.45,0003.01
2024-04-15 18:12:00,SystemResetWarning,0815.5,5.01,000.00,024.9,024.0,000.0,033.2,026.8,011.8,0000.0,0004.18,0011.61,0003.00
2024-04-15 18:13:00,SystemResetWarning,0815.5,5.00,000.00,025.0,024.2,000.0,033.2,026.9,011.5,0000.0,0004.22,0012.04,0002.99
2024-04-15 18:14:00,SystemResetWarning,0815.5,5.00,000.00,025.1,024.5,000.0,033.2,027.0,011.7,0000.0,0004.16,0011.64,0002.97
2024-04-15 18:15:00,SystemResetWarning,0815.4,4.99,000.00,025.1,024.6,000.0,033.3,027.1,011.6,0000.0,0004.19,0011.30,0002.98
2024-04-15 18:16:00,SystemResetWarning,0815.4,4.99,000.00,025.2,024.8,000.0,033.3,027.2,011.4,0000.0,0004.17,0010.73,0002.95
2024-04-15 18:17:00,SystemResetWarning,0815.4,5.00,000.00,025.3,024.7,000.0,033.4,027.1,010.9,0000.0,0004.14,0010.65,0002.93
2024-04-15 18:18:00,SystemResetWarning,0815.3,4.99,000.00,025.1,023.0,000.0,033.4,026.1,011.4,0000.0,0004.19,0010.84,0002.93
2024-04-15 18:19:00,SystemResetWarning,0815.2,5.01,000.00,024.7,021.7,000.0,033.4,025.3,011.8,0000.0,0004.18,0011.18,0002.95
2024-04-15 18:20:00,SystemResetWarning,0815.2,5.01,000.00,024.5,022.0,000.0,033.4,025.4,011.9,0000.0,0004.17,0010.94,0002.94
2024-04-15 18:21:00,SystemResetWarning,0815.2,4.99,000.00,024.5,022.5,000.0,033.2,025.7,012.2,0000.0,0004.11,0010.64,0002.92
2024-04-15 18:22:00,SystemResetWarning,0815.2,5.00,000.00,024.6,022.9,000.0,033.1,026.1,012.2,0000.0,0004.06,0010.62,0002.90
2024-04-15 18:23:00,SystemResetWarning,0815.1,5.00,000.00,024.6,023.2,000.0,033.1,026.4,012.1,0000.0,0004.05,0010.78,0002.92
2024-04-15 18:24:00,SystemResetWarning,0815.1,4.99,000.00,024.7,023.6,000.0,033.1,026.5,012.3,0000.0,0004.06,0010.59,0002.95
2024-04-15 18:25:00,SystemResetWarning,0815.1,4.99,000.00,024.8,023.9,000.0,033.1,026.7,011.3,0000.0,0004.15,0011.27,0002.97
2024-04-15 18:26:00,SystemResetWarning,0815.1,5.00,000.00,024.9,024.2,000.0,033.1,026.8,010.7,0000.0,0004.15,0012.46,0002.95
2024-04-15 18:27:00,SystemResetWarning,0815.1,4.99,000.00,025.0,024.3,000.0,033.1,026.9,010.7,0000.0,0004.14,0012.93,0002.95
2024-04-15 18:28:00,SystemResetWarning,0815.1,5.01,000.00,025.1,024.5,000.0,033.2,027.0,011.0,0000.0,0004.12,0013.02,0002.95
2024-04-15 18:29:00,SystemResetWarning,0815.0,5.02,000.00,025.1,024.7,000.0,033.2,027.1,011.2,0000.0,0004.10,0013.18,0002.91
2024-04-15 18:30:00,SystemResetWarning,0815.0,4.99,000.00,025.2,024.4,000.0,033.3,026.9,011.5,0000.0,0004.07,0013.86,0002.86
2024-04-15 18:31:00,SystemResetWarning,0814.9,5.00,000.00,024.9,022.6,000.0,033.3,025.9,011.4,0000.0,0004.02,0014.17,0002.83
2024-04-15 18:32:00,SystemResetWarning,0814.9,5.02,000.00,024.6,021.8,000.0,033.3,025.3,012.3,0000.0,0004.05,0014.66,0002.81
2024-04-15 18:33:00,SystemResetWarning,0814.9,4.99,000.00,024.5,022.2,000.0,033.3,025.5,012.1,0000.0,0004.10,0015.55,0002.81
2024-04-15 18:34:00,SystemResetWarning,0814.9,4.99,000.00,024.5,022.6,000.0,033.1,025.8,012.3,0000.0,0004.15,0015.38,0002.79
2024-04-15 18:35:00,SystemResetWarning,0814.8,5.00,000.00,024.6,023.0,000.0,033.1,026.2,012.1,0000.0,0004.10,0014.96,0002.78
2024-04-15 18:36:00,SystemResetWarning,0814.9,5.01,000.00,024.6,023.4,000.0,033.0,026.3,011.3,0000.0,0004.03,0014.47,0002.80
2024-04-15 18:37:00,SystemResetWarning,0814.8,5.01,000.00,024.7,023.7,000.0,033.0,026.5,011.4,0000.0,0004.01,0013.27,0002.82
2024-04-15 18:38:00,SystemResetWarning,0814.8,4.99,000.00,024.8,024.1,000.0,033.0,026.6,011.2,0000.0,0004.06,0012.74,0002.82
2024-04-15 18:39:00,SystemResetWarning,0814.8,4.99,000.00,024.9,024.4,000.0,033.0,026.8,010.8,0000.0,0004.13,0013.32,0002.83
2024-04-15 18:40:00,SystemResetWarning,0814.8,5.00,000.00,025.0,024.3,000.0,033.1,026.7,010.5,0000.0,0004.13,0014.00,0002.84
2024-04-15 18:41:00,SystemResetWarning,0814.7,5.00,000.00,024.8,022.7,000.0,033.1,025.8,011.1,0000.0,0004.15,0014.72,0002.85
2024-04-15 18:42:00,SystemResetWarning,0814.6,5.01,000.00,024.4,021.6,000.0,033.1,025.1,011.8,0000.0,0004.23,0015.42,0002.86
2024-04-15 18:43:00,SystemResetWarning,0814.6,5.01,000.00,024.3,022.0,000.0,033.1,025.3,012.3,0000.0,0004.23,0015.06,0002.85
2024-04-15 18:44:00,SystemResetWarning,0814.6,4.99,000.00,024.3,022.4,000.0,032.9,025.6,011.7,0000.0,0004.20,0014.49,0002.85
2024-04-15 18:45:00,SystemResetWarning,0814.5,5.00,000.00,024.4,022.8,000.0,032.9,026.0,012.1,0000.0,0004.15,0014.69,0002.85
2024-04-15 18:46:00,SystemResetWarning,0814.5,5.01,000.00,024.4,023.1,000.0,032.9,026.2,012.2,0000.0,0004.17,0014.39,0002.83
2024-04-15 18:47:00,SystemResetWarning,0814.5,4.99,000.00,024.5,023.5,000.0,032.8,026.3,011.9,0000.0,0004.20,0015.45,0002.80
2024-04-15 18:48:00,SystemResetWarning,0814.5,4.99,000.00,024.6,023.8,000.0,032.8,026.5,011.3,0000.0,0004.20,0015.50,0002.77
2024-04-15 18:49:00,SystemResetWarning,0814.5,5.00,000.00,024.7,024.0,000.0,032.9,026.7,010.1,0000.0,0004.14,0015.52,0002.73
2024-04-15 18:50:00,SystemResetWarning,0814.5,5.01,000.00,024.8,024.2,000.0,032.9,026.8,010.5,0000.0,0004.11,0015.22,0002.70
2024-04-15 18:51:00,SystemResetWarning,0814.4,5.00,000.00,024.9,024.4,000.0,033.0,026.9,010.4,0000.0,0004.06,0015.24,0002.69
2024-04-15 18:52:00,SystemResetWarning,0814.4,5.00,000.00,025.0,024.5,000.0,033.0,027.0,010.3,0000.0,0003.99,0014.41,0002.67
2024-04-15 18:53:00,SystemResetWarning,0814.4,4.98,000.00,024.9,023.1,000.0,033.1,026.2,010.4,0000.0,0003.94,0013.35,0002.64
2024-04-15 18:54:00,SystemResetWarning,0814.3,5.02,000.00,024.5,021.6,000.0,033.1,025.2,010.3,0000.0,0003.94,0013.81,0002.60
2024-04-15 18:55:00,SystemResetWarning,0814.3,5.01,000.00,024.3,021.8,000.0,033.1,025.2,010.0,0000.0,0003.90,0014.24,0002.55
2024-04-15 18:56:00,SystemResetWarning,0814.3,5.00,000.00,024.3,022.2,000.0,033.0,025.5,010.4,0000.0,0003.88,0015.15,0002.52
2024-04-15 18:57:00,SystemResetWarning,0814.3,4.99,000.00,024.4,022.6,000.0,032.8,025.8,010.9,0000.0,0003.83,0015.13,0002.48
2024-04-15 18:58:00,SystemResetWarning,0814.4,5.00,000.00,024.4,023.0,000.0,032.8,026.1,010.6,0000.0,0003.78,0013.96,0002.44
2024-04-15 18:59:00,SystemResetWarning,0814.3,5.00,000.00,024.5,023.3,000.0,032.8,026.3,009.0,0000.0,0003.70,0013.74,0002.40
